Location: Unspecified
(0.0000°N, 0.0000°E)
Time: 11:12:46
(UTC+02:00)

Iridium 84 - Visible Passes

Search period start: 25 May 2016 00:00
Search period end: 04 June 2016 00:00
Orbit: 776 x 779 km, 86.4° (Epoch: 24 May)

Date Brightness Start Highest point End Pass type
(mag) Time Alt. Az. Time Alt. Az. Time Alt. Az.
25 May 8.8 06:42:21 10° ENE 06:43:41 11° E 06:45:01 10° ESE visible
25 May 8.5 20:55:03 10° WSW 20:57:38 14° W 21:00:14 10° WNW visible
26 May 7.7 20:19:38 10° SSW 20:24:11 31° W 20:28:44 10° NNW visible
27 May 7.0 07:12:19 10° NNE 07:17:11 41° E 07:22:03 10° SSE visible
28 May 8.3 06:40:12 10° NE 06:43:44 18° E 06:47:16 10° SE visible
29 May 8.3 20:20:37 10° SW 20:24:15 19° W 20:27:53 10° NW visible
30 May 6.0 07:12:04 10° N 07:17:14 67° E 07:22:25 10° S visible
31 May 7.5 06:39:17 10° NNE 06:43:47 30° E 06:48:17 10° SSE visible
01 Jun 8.4 06:07:56 10° ENE 06:10:20 13° E 06:12:46 10° ESE visible
01 Jun 8.8 20:22:39 10° WSW 20:24:18 11° W 20:25:57 10° WNW visible
02 Jun 5.5 07:12:06 10° N 07:17:18 76° W 07:22:31 10° S visible
03 Jun 6.5 06:38:51 10° NNE 06:43:50 48° E 06:48:52 10° SSE visible
